Content
SEND FEEDBACK

Daily
Averages
Monthly
Summary
India

AHMEDABAD, INDIA


Home > Asia > India
Elevation: 180 feet     Latitude: 23 04N     Longitude: 072 38E

WEATHER
 
SELECT A DAY
Number of Records: 210,786;   Date Range: 7/1/96 - 8/31/14
 
SHARE

PRINT THIS DATA

[ ← Previous Day ]
WEATHER ALMANAC - JANUARY 3, 2013
[ Next Day → ]
[ °C ]   °F
Weather ElementAverageHighLow
Temperature62 °F77 °F (1:40 pm)50 °F (4:10 am)
Dewpoint45.7 °F52 °F (11:30 am)35.6 °F (12:40 am)
Humidity56.3 %82 % (10:40 pm)28 % (2:30 pm)
Barometer29.97 in30.06 in (11:30 am)29.89 in (3:40 pm)
Wind Speed5.4 mph9.2 mph (9:10 am)
Weather ElementAverage
Visibility2.4 mi
Wind DirectionENE (55.3 °)

Weather ElementTotal
Precipitation---
Heating Degree Days1.5 (Base 65)
Growing Degree Days13.5 (Base 50)
Averaged from 49 records on January 3, 2013
WEATHER CONDITIONS BREAKOUT
WIND DIRECTION BREAKOUT
WEATHER BY HOUR - JANUARY 3, 2013
[ °C ]   °F
Local TimeTemperatureDewpointHumidityBarometerVisibilityWind DirectionWind SpeedGust SpeedPrecipitationEventsConditions
12:40 AM55.4 °F35.6 °F47 %29.95 in2.5 miNNE (30°)3.5 mphSmoke
1:10 AM53.6 °F37.4 °F54 %29.95 in2.5 miNE (40°)3.5 mphSmoke
1:40 AM51.8 °F37.4 °F58 %29.95 in2.5 miENE (60°)3.5 mphSmoke
2:10 AM51.8 °F41.0 °F67 %29.95 in2.5 miNNE (30°)3.5 mphSmoke
2:30 AM52.0 °F44.0 °F66 %29.97 in2.0 miNNW (340°)3.5 mphHaze
2:40 AM51.8 °F39.2 °F62 %29.95 in2.5 miNNE (30°)3.5 mphSmoke
3:10 AM53.6 °F39.2 °F58 %29.95 in2.5 miNE (40°)3.5 mphSmoke
3:40 AM51.8 °F39.2 °F62 %29.95 in2.5 miNE (40°)3.5 mphSmoke
4:10 AM50.0 °F41.0 °F71 %29.95 in2.5 miNNE (30°)4.6 mphHaze
4:40 AM50.0 °F42.8 °F76 %29.95 in2.5 miNE (40°)4.6 mphHaze
5:10 AM50.0 °F42.8 °F76 %29.95 in2.5 miNE (40°)4.6 mphHaze
5:30 AM54.0 °F46.0 °F67 %29.97 in2.0 miNE (50°)3.5 mphHaze
5:40 AM50.0 °F42.8 °F76 %29.95 in2.5 miNE (40°)6.9 mphHaze
6:10 AM51.8 °F44.6 °F76 %29.98 in2.2 miNE (50°)6.9 mphHaze
7:10 AM51.8 °F42.8 °F71 %29.98 in1.6 miNE (50°)5.8 mphHaze
7:40 AM53.6 °F44.6 °F72 %30.01 in1.2 miNE (50°)4.6 mphHaze
8:10 AM53.6 °F44.6 °F72 %30.01 in1.2 miNE (40°)4.6 mphHaze
8:30 AM59.0 °F48.0 °F58 %30.03 in1.0 miNE (50°)4.6 mphHaze
8:40 AM57.2 °F44.6 °F63 %30.01 in1.2 miENE (70°)6.9 mphHaze
9:10 AM59.0 °F46.4 °F63 %30.04 in1.2 miENE (60°)9.2 mphHaze
9:40 AM62.6 °F48.2 °F59 %30.04 in1.2 miEast (80°)9.2 mphHaze
10:40 AM68.0 °F48.2 °F49 %30.04 in2.5 miEast (90°)9.2 mphSmoke
11:30 AM72.0 °F52.0 °F39 %30.06 in2.0 miEast (90°)5.8 mphSmoke
12:10 PM73.4 °F50.0 °F44 %30.01 in3.1 miEast (80°)5.8 mphSmoke
12:40 PM75.2 °F50.0 °F41 %29.98 in3.1 miENE (70°)9.2 mphSmoke
1:40 PM77.0 °F48.2 °F36 %29.95 in3.1 miENE (70°)9.2 mphSmoke
2:10 PM77.0 °F48.2 °F36 %29.95 in3.1 miENE (60°)9.2 mphSmoke
2:30 PM77.0 °F50.0 °F28 %29.96 in2.0 miNE (50°)5.8 mph
2:40 PM77.0 °F46.4 °F34 %29.92 in3.1 miENE (60°)9.2 mphSmoke
3:10 PM77.0 °F46.4 °F34 %29.92 in3.1 miENE (60°)9.2 mphSmoke
3:40 PM77.0 °F44.6 °F32 %29.89 in3.1 miENE (60°)9.2 mphSmoke
4:10 PM77.0 °F46.4 °F34 %29.89 in3.1 miNE (50°)6.9 mphSmoke
4:40 PM77.0 °F44.6 °F32 %29.89 in3.1 miENE (60°)6.9 mphSmoke
5:10 PM75.2 °F44.6 °F34 %29.92 in3.1 miENE (60°)4.6 mphSmoke
5:30 PM74.0 °F50.0 °F32 %29.94 in2.0 miNE (50°)4.6 mph
5:40 PM73.4 °F46.4 °F38 %29.92 in3.1 miNE (50°)5.8 mphSmoke
6:40 PM68.0 °F46.4 °F46 %29.95 in2.5 miNE (50°)5.8 mphSmoke
7:10 PM66.2 °F46.4 °F49 %29.95 in2.5 miNE (50°)4.6 mphSmoke
7:40 PM64.4 °F46.4 °F52 %29.95 in2.5 miNNE (30°)4.6 mphSmoke
8:10 PM62.6 °F46.4 °F55 %29.98 in2.5 miENE (70°)3.5 mphSmoke
8:30 PM61.0 °F52.0 °F65 %29.99 in2.0 miNorth2.3 mphHaze
8:40 PM60.8 °F48.2 °F63 %29.98 in2.5 miNNE (20°)4.6 mphSmoke
9:10 PM60.8 °F48.2 °F63 %29.98 in2.5 miENE (60°)3.5 mphSmoke
9:40 PM59.0 °F48.2 °F67 %29.98 in2.5 miENE (60°)3.5 mphSmoke
10:10 PM57.2 °F50.0 °F77 %29.98 in2.5 miNNE (30°)3.5 mphSmoke
10:40 PM57.2 °F51.8 °F82 %29.98 in2.5 miNNE (30°)3.5 mphHaze
11:10 PM57.2 °F50.0 °F77 %29.98 in2.5 miNE (40°)3.5 mphHaze
11:30 PM56.0 °F49.0 °F71 %30.00 in1.0 miNorth2.3 mphHaze
11:40 PM55.4 °F48.2 °F77 %29.95 in2.5 miNE (50°)3.5 mphHaze
Hourly data recorded from VAAH, located miles away from Ahmedabad, India







STORIES FROM OUR PARTNERS